GW1560 Weather Reports


time (UTC)temp
F
wind
direction
speed
knots
gust
knots
rain 1hr
in
rain 24hr
in
rain mn
in
humidity
%
barometer
mb
20260504081541 42 254 0.9 4.3 0.00 0.00 0.00 65 1008.9
20260504044539 45 239 0.0 2.6 0.00 0.00 0.00 62 1008.9
20260504043049 45 212 0.0 1.7 0.00 0.00 0.00 61 1009.0
20260504041541 45 0 0.0 1.7 0.00 0.00 0.00 61 1008.8
20260504040041 45 254 0.0 1.7 0.00 0.00 0.00 62 1009.0
20260504034534 46 292 0.0 1.7 0.00 0.00 0.00 58 1009.0
20260504033044 47 0 0.0 1.7 0.00 0.00 0.00 57 1009.0
20260504031544 47 0 0.0 3.5 0.00 0.00 0.00 58 1009.2
20260504030049 46 34 0.0 1.7 0.00 0.00 0.00 58 1009.1
20260504024546 47 221 0.0 1.7 0.00 0.00 0.00 57 1009.5
20260504023034 48 0 0.0 3.5 0.00 0.00 0.00 55 1009.6
20260504021547 48 13 1.7 5.2 0.00 0.00 0.00 55 1009.2
20260504020049 48 19 2.6 6.1 0.00 0.00 0.00 54 1009.4
20260504014542 47 13 1.7 3.5 0.00 0.00 0.00 54 1009.4
20260504013051 47 9 0.9 4.3 0.00 0.00 0.00 54 1009.2
20260504011538 47 51 0.9 4.3 0.00 0.00 0.00 54 1009.1
20260504010051 47 0 0.9 7.8 0.00 0.00 0.00 55 1008.9
20260504004540 47 248 0.0 1.7 0.00 0.00 0.00 56 1008.7
20260504003038 47 248 0.0 0.9 0.00 0.00 0.00 56 1008.6
20260504001540 47 0 0.0 1.7 0.00 0.00 0.00 55 1008.3
20260504000042 48 248 0.0 1.7 0.00 0.00 0.00 53 1008.3
20260503234543 49 144 0.0 2.6 0.00 0.00 0.00 52 1008.3
20260503233046 50 309 0.0 1.7 0.00 0.00 0.00 54 1008.3
20260503231541 50 266 0.9 4.3 0.00 0.00 0.00 51 1008.1
20260503230039 51 319 0.9 8.7 0.00 0.00 0.00 47 1008.1
20260503224538 52 292 1.7 7.0 0.00 0.00 0.00 45 1008.2
20260503223036 52 317 6.1 13.0 0.00 0.00 0.00 45 1008.3
20260503221537 52 335 3.5 11.3 0.00 0.00 0.00 47 1008.2
20260503220043 51 239 3.5 11.3 0.00 0.00 0.00 47 1008.7
20260503214541 50 44 3.5 13.9 0.00 0.00 0.00 47 1008.6
20260503213040 49 18 3.5 16.5 0.00 0.00 0.00 47 1008.5
20260503211549 50 330 3.5 13.0 0.00 0.00 0.00 44 1008.2
20260503210043 51 315 2.6 11.3 0.00 0.00 0.00 44 1007.9
20260503204542 51 221 4.3 13.9 0.00 0.00 0.00 41 1007.8
20260503203054 51 316 6.1 12.2 0.00 0.00 0.00 42 1008.0
20260503201542 51 51 2.6 17.4 0.00 0.00 0.00 41 1008.1
20260503200048 51 271 5.2 11.3 0.00 0.00 0.00 40 1008.0
20260503194542 51 11 3.5 11.3 0.00 0.00 0.00 40 1008.4
20260503193045 51 269 7.0 13.9 0.00 0.00 0.00 38 1008.5
20260503191540 51 275 4.3 18.2 0.00 0.00 0.00 39 1008.7
20260503190043 52 93 6.1 13.9 0.00 0.00 0.00 37 1008.7
20260503184541 51 23 6.1 13.9 0.00 0.00 0.00 37 1008.9
20260503183044 51 325 6.1 15.6 0.00 0.00 0.00 35 1009.2
20260503181543 50 31 4.3 15.6 0.00 0.00 0.00 41 1009.3
20260503180049 48 301 6.1 15.6 0.00 0.00 0.00 41 1009.5
20260503174544 49 64 7.0 16.5 0.00 0.00 0.00 38 1009.4
20260503173046 49 287 5.2 14.8 0.00 0.00 0.00 39 1009.7
20260503171542 48 282 5.2 14.8 0.00 0.00 0.00 41 1009.6